Tracking 35274 objects as of 11-Sep-2026
HD Live streaming from Space Station
objects crossing your sky now

STARLINK-33694

Track STARLINK-33694 now!
10-day predictions
STARLINK-33694 is classified as:


NORAD ID: 63407
Int'l Code: 2025-065J
Launch date: March 31, 2025
Source: United States (US)
Launch site: AIR FORCE EASTERN TEST RANGE (AFETR)
Your satellite tracking list
Your tracking list is empty




NASA's NSSDC Master Catalog

Two Line Element Set (TLE):
1 63407U 25065J   26254.06933485  .00011697  00000-0  43371-3 0  9990
2 63407  43.0023 139.9498 0001752 250.1015 109.9648 15.27595249 81191
Source of the keplerian elements: AFSPC